TIME,DELAY(SENSOR),PRES,OXYGEN,RAWTEMP,T(OPTODE),TCPHASE,FLUOR,BETA(BETA700),BETA(BETA412),BETA(BETA440),CDOM,C(CSC),ED(ED412.40),ED(ED444.00),ED(ED489.70),ED(ED554.30),LU(LU411.80),LU(LU443.40),LU(LU489.60),LU(LU554.10),COMP,TILTX,TILTY,CHECK
1359690102,5809,895.8200073242188000,45.6063499450683600,661.4317016601562000,4.5808281898498535,54.1853599548339840,53,99,89,79,81,15016,2147752612,2147424603,2148006674,2147874093,2147641307,2147060333,2148261028,2147199689,3382,4,14,38992
1359693698,5806,981.0599975585938000,52.6909217834472660,667.9688720703125000,4.3652710914611820,53.2777290344238300,52,97,87,80,80,15013,2147756617,2147423332,2148010331,2147876534,2147640347,2147055369,2148253787,2147201252,2354,4,14,54633
1359697298,5810,991.4899902343750000,53.8047981262207000,669.7858276367188000,4.3052711486816410,53.1470413208007800,52,102,87,80,81,15017,2147757248,2147421595,2148009554,2147876370,2147641014,2147056082,2148259812,2147198281,3457,4,14,58446
1359700898,5812,989.7100219726562000,52.5172882080078100,672.7047119140625000,4.2088088989257810,53.3634185791015600,53,99,85,79,80,15012,2147755510,2147424064,2148006262,2147872283,2147642002,2147058285,2148258742,2147196854,3299,4,13,47410
1359704498,5809,995.4099731445312000,50.5589981079101560,674.7031860351562000,4.1427078247070310,53.6516418457031250,53,98,87,79,80,15013,2147759268,2147423689,2148009261,2147873993,2147639104,2147061805,2148262857,2147197750,14,4,13,16070
1359708098,5811,1006.0300292968750000,50.2224502563476560,675.0405883789062000,4.1315398216247560,53.7030296325683600,52,98,86,78,81,15005,2147756973,2147422829,2148009216,2147874038,2147646326,2147060214,2148257993,2147200923,11,4,13,13509
1359711698,5809,1008.1500244140625000,49.9797096252441400,674.1638793945312000,4.1605510711669920,53.7244186401367200,53,96,87,77,79,15004,2147757101,2147425453,2148012178,2147871634,2147642340,2147059401,2148260352,2147195876,92,4,13,44354
1359715298,5807,1008.6400146484375000,50.0303497314453100,674.6569213867188000,4.1442379951477050,53.7277908325195300,53,98,87,80,81,15003,2147754258,2147424841,2148008301,2147875785,2147641389,2147059364,2148264173,2147198262,3563,4,13,19286
1359718898,5809,1012.1199951171875000,49.9378890991210940,674.0382080078125000,4.1647090911865230,53.7320594787597660,52,98,86,80,81,15006,2147756489,2147420242,2148008795,2147873115,2147643218,2147061595,2148258715,2147200621,3165,4,13,37389
1359722498,5811,1021.8800048828125000,49.8830795288085940,673.3978881835938000,4.1858839988708500,53.7283287048339840,52,99,87,78,81,15004,2147755364,2147423360,2148004928,2147873280,2147642532,2147053723,2148264896,2147197156,3544,4,13,7028
1359726098,5810,1014.9799804687500000,51.9675598144531250,671.6520996093750000,4.2436070442199710,53.4220199584960940,52,101,83,79,81,15006,2147756955,2147422208,2148008402,2147875538,2147642258,2147056448,2148260269,2147194240,200,4,13,42725
1359729698,5810,1019.3499755859375000,50.6184997558593750,672.7357788085938000,4.2077789306640625,53.6227302551269500,52,100,88,78,81,15005,2147756763,2147423094,2148008566,2147874176,2147644361,2147060086,2148262491,2147199945,3186,4,13,25858
1359733298,5810,1019.0499877929688000,51.4821395874023440,672.7786865234375000,4.2063617706298830,53.4995689392089840,52,97,85,80,79,15001,2147755995,2147422893,2148009901,2147874038,2147640777,2147056950,2148257709,2147197979,3493,4,13,46655
1359736898,5808,1015.0700073242188000,50.2795410156250000,673.6068725585938000,4.1789717674255370,53.6769218444824200,52,97,86,78,80,15000,2147755501,2147422674,2148006400,2147873490,2147642377,2147053504,2148263213,2147197522,3357,4,13,35020
1359740498,5807,1002.4000244140625000,50.1086387634277340,676.0446777343750000,4.0983099937438965,53.7294082641601560,52,98,87,79,80,15002,2147756754,2147423643,2148006692,2147873426,2147644662,2147056155,2148262445,2147194230,3569,4,13,20596
1359744098,5807,996.8300170898438000,50.9286384582519500,677.6635131835938000,4.0447101593017580,53.6368789672851560,52,99,86,79,81,15003,2147756370,2147424109,2148007259,2147874880,2147643446,2147054875,2148262701,2147197202,151,4,13,64284
1359747698,5810,1002.5999755859375000,51.1602706909179700,678.4772949218750000,4.0177497863769530,53.6199188232421900,53,99,89,80,82,15002,2147757110,2147419456,2148010752,2147875401,2147640594,2147054418,2148261860,2147198171,445,4,13,45582
1359751298,5810,1007.3099975585938000,50.9344291687011700,677.6561889648438000,4.0449500083923340,53.6391410827636700,54,98,87,79,80,15000,2147755638,2147425929,2148008484,2147875876,2147644123,2147060123,2148256393,2147199350,464,4,13,21933
1359754898,5808,1011.0599975585938000,50.5836105346679700,677.3557739257812000,4.0548992156982420,53.6825981140136700,53,96,86,80,81,15002,2147757897,2147420342,2148009627,2147873426,2147640685,2147061229,2148256310,2147196388,450,4,13,10085
1359758498,5810,1016.9699707031250000,50.6472396850585940,676.1713867187500000,4.0941138267517090,53.6620712280273440,53,101,88,79,80,14983,2147756306,2147422628,2148006025,2147874889,2147642331,2147054848,2148261238,2147194825,118,4,13,65014
1359762098,5812,1020.1199951171875000,49.9872016906738300,675.5850830078125000,4.1135230064392090,53.7411994934082000,53,96,85,80,81,15000,2147756260,2147424502,2148008822,2147876726,2147640749,2147057453,2148258953,2147195593,99,4,13,49809
1359765698,5810,1022.5999755859375000,49.9348411560058600,674.5496826171875000,4.1477870941162110,53.7400894165039060,52,99,87,78,81,15001,2147757604,2147423753,2148013120,2147873856,2147642578,2147057965,2148264292,2147198345,682,4,13,24900
1359769298,5810,1018.8499755859375000,50.8587303161621100,672.8765258789062000,4.2031269073486330,53.5875701904296900,51,100,85,79,81,14998,2147756516,2147422573,2148007332,2147870226,2147639981,2147059209,2148260086,2147196644,3348,4,13,56929
1359772898,5810,1023.5399780273438000,49.8886604309082000,675.1121215820312000,4.1291751861572270,53.7499694824218750,52,98,85,79,80,15000,2147757430,2147422281,2148009417,2147872667,2147642349,2147057014,2148258121,2147198518,57,5,13,48823
1359776498,5809,1027.5899658203125000,50.0379295349121100,672.9835815429688000,4.1995868682861330,53.6993789672851560,53,97,91,78,80,15002,2147758162,2147423844,2148013257,2147872731,2147638829,2147057910,2148258139,2147196269,254,4,13,10390
1359780098,5810,1026.4499511718750000,51.8662300109863300,671.3541259765625000,4.2534561157226560,53.4316291809082000,51,98,86,79,81,15002,2147755602,2147423387,2148009033,2147871744,2147640082,2147059181,2148262217,2147197156,3434,4,13,15121
1359783698,5803,1027.1099853515625000,51.2327499389648440,671.7020263671875000,4.2419590950012210,53.5201110839843750,53,98,87,80,80,15000,2147756918,2147422701,2148011410,2147868854,2147638720,2147057133,2148261129,2147199798,3582,4,13,18683
1359787298,5808,1021.5800170898438000,49.7673683166503900,672.8270263671875000,4.2047672271728520,53.7383804321289060,53,98,87,79,80,15000,2147756507,2147426185,2148007990,2147874249,2147638738,2147056018,2148257673,2147199286,42,4,13,64368
1359790898,5809,1014.0700073242188000,49.8778305053710940,675.0526123046875000,4.1311469078063965,53.7503890991210940,52,99,86,80,80,14999,2147755840,2147422317,2148006208,2147872777,2147644864,2147051958,2148262454,2147198372,3299,4,13,18261
1359794498,5810,1007.2199707031250000,50.4165992736816400,677.0742187500000000,4.0642261505126950,53.7035789489746100,53,98,90,80,82,15000,2147754395,2147422756,2148009746,2147874578,2147641344,2147058697,2148262427,2147195876,620,4,13,53280
1359798098,5813,1006.7500000000000000,50.6305313110351560,678.3724975585938000,4.0212230682373050,53.6877899169921900,52,100,86,80,80,15002,2147757869,2147423762,2148009682,2147872822,2147645686,2147061494,2148263259,2147195382,301,4,13,19255
1359801698,5809,1009.9199829101562000,50.5802612304687500,677.9653930664062000,4.0347099304199220,53.6895713806152340,52,98,86,79,81,14998,2147760905,2147422454,2148009910,2147871716,2147642304,2147057572,2148259757,2147195904,146,4,13,46384
1359805298,5810,1024.1500244140625000,50.7711791992187500,676.4738769531250000,4.0841012001037600,53.6430282592773440,52,97,85,77,81,15000,2147760027,2147424210,2148008941,2147871990,2147645184,2147053504,2148260845,2147194313,2415,4,13,28374
1359808898,5809,1023.2100219726562000,49.8602905273437500,675.6093750000000000,4.1127190589904785,53.7595405578613300,52,98,90,80,80,14998,2147756251,2147424640,2148010944,2147874898,2147642541,2147054692,2148258057,2147193755,3470,4,13,62331
1359812498,5809,1031.2600097656250000,49.6616096496582000,673.8082275390625000,4.1723160743713380,53.7645301818847660,53,99,83,78,80,14998,2147758171,2147422308,2148009545,2147872420,2147639296,2147055424,2148260297,2147195062,3096,4,13,26570
1359816098,5808,1028.5799560546875000,49.5164489746093750,673.9942016601562000,4.1661620140075680,53.7902908325195300,53,99,88,79,81,15002,2147759561,2147424676,2148011053,2147871954,2147639570,2147056896,2148261083,2147200237,129,4,13,20383
1359819698,5807,1029.2700195312500000,49.3826599121093750,674.2678222656250000,4.1571140289306640,53.8063087463378900,53,98,88,79,81,14999,2147755026,2147426889,2148010742,2147873481,2147643309,2147061467,2148258706,2147197878,3516,4,13,48779
1359823298,5806,1023.6599731445312000,49.6592712402343750,673.9503784179688000,4.1676139831542970,53.7681312561035160,52,99,87,79,81,14993,2147758189,2147425801,2148008100,2147871414,2147642166,2147059830,2148257810,2147196361,3084,4,13,56283
1359826898,5807,1020.9400024414062000,48.9430313110351560,675.1193237304688000,4.1289367675781250,53.8798408508300800,53,100,87,81,81,14998,2147753609,2147425472,2148008274,2147874368,2147642925,2147058761,2148262473,2147197019,3089,4,13,57845
1359830498,5807,1018.6699829101562000,50.2504501342773440,676.4760131835938000,4.0840320587158200,53.7150688171386700,53,98,84,79,80,14991,2147756224,2147420864,2148008100,2147874733,2147641682,2147056521,2148262400,2147196196,2581,4,13,7978
1359834098,5810,1016.6199951171875000,50.4225196838378900,677.3021850585938000,4.0566730499267580,53.7052001953125000,53,100,88,78,81,14995,2147755245,2147428269,2148011492,2147872384,2147641755,2147057965,2148259318,2147197430,130,4,13,7024
1359835256,5809,1015.7399902343750000,50.2597084045410160,677.3223266601562000,4.0560088157653810,53.7292709350585940,52,99,90,78,81,15003,2147754971,2147422729,2148009462,2147877476,2147643291,2147051044,2148258733,2147200365,29,4,13,13933
